Location: Clair
(33.8067°N, 117.9845°W)
Time: 08:22:22
(UTC+00:00)

IRS-1D - Pass Details

Date: 14 February 2026
Orbit: 736 x 811 km, 98.8° (Epoch: 12 March)

Event Time Altitude Azimuth Distance (km) Brightness Sun altitude
Rises 13:07:45 0° 10° (N) 3,282 6.9 -19.2°
Reaches altitude 10° 13:10:06 10° 8° (N) 2,339 6.1 -18.7°
Maximum altitude 13:15:13 72° 285° (WNW) 810 3.4 -17.6°
Drops below altitude 10° 13:20:12 10° 202° (SSW) 2,276 5.8 -16.6°
Sets 13:22:28 0° 200° (SSW) 3,187 6.6 -16.1°
